This is the latest recevied weather packets stored in our database for station/object K5BOU. If no packets are shown the sender has not sent any weather packets the latest 10 day(s).
| Time | Temp. | Humidity | Pressure | Rain* | Wind** | Luminosity | Snow |
|---|---|---|---|---|---|---|---|
| 1777902263 | 20° C | 83% | 1013.8 hPa | 0 mm | - | 241 W/m² | - |
| 1777901961 | 20° C | 83% | 1013.9 hPa | 0 mm | - | 120 W/m² | - |
| 1777901658 | 19.44° C | 83% | 1013.9 hPa | 0 mm | - | 151 W/m² | - |
| 1777901355 | 19.44° C | 85% | 1014.1 hPa | 0 mm | - | 167 W/m² | - |
| 1777901053 | 16.67° C | 93% | 1013.9 hPa | 0 mm | - | 122 W/m² | - |
| 1777900751 | 16.67° C | 93% | 1013.6 hPa | 0 mm | - | 122 W/m² | - |
| 1777900448 | 16.67° C | 93% | 1013.8 hPa | 0 mm | - | 122 W/m² | - |
| 1777900144 | 16.67° C | 93% | 1013.8 hPa | 0 mm | - | 122 W/m² | - |
| 1777899841 | 16.11° C | 94% | 1013.5 hPa | 0 mm | - | 298 W/m² | - |
| 1777899538 | 15.56° C | 97% | 1013.7 hPa | 0 mm | - | 99 W/m² | - |
| 1777899236 | 15.56° C | 99% | 1013.6 hPa | 0 mm | - | 84 W/m² | - |
| 1777898933 | 14.44° C | 99% | 1013.5 hPa | 0 mm | - | 58 W/m² | - |
| 1777898630 | 14.44° C | 99% | 1013.5 hPa | 0 mm | - | 58 W/m² | - |
| 1777898327 | 13.89° C | 99% | 1013.6 hPa | 0 mm | - | 39 W/m² | - |
| 1777898024 | 13.89° C | 99% | 1013.8 hPa | 0 mm | - | 42 W/m² | - |
| 1777897720 | 13.89° C | 99% | 1013.6 hPa | 0 mm | - | 32 W/m² | - |
| 1777897417 | 12.78° C | 99% | 1013.8 hPa | 0 mm | - | 11 W/m² | - |
| 1777897113 | 12.78° C | 99% | 1013.7 hPa | 0 mm | - | 11 W/m² | - |
| 1777896809 | 12.78° C | 99% | 1013.5 hPa | 0 mm | - | 11 W/m² | - |
| 1777896506 | 12.78° C | 99% | 1013.6 hPa | 0 mm | - | 11 W/m² | - |
| 1777896204 | 12.78° C | 99% | 1013.5 hPa | 0 mm | - | 11 W/m² | - |
| 1777895902 | 12.78° C | 99% | 1013.3 hPa | 0 mm | - | 11 W/m² | - |
| 1777895599 | 12.78° C | 99% | 1013.5 hPa | 0 mm | - | 8 W/m² | - |
| 1777895296 | 12.78° C | 99% | 1013.8 hPa | 0 mm | - | 5 W/m² | - |
| 1777894994 | 12.78° C | 99% | 1013.5 hPa | 0 mm | - | 0 W/m² | - |
* Rain latest hour (hover to see other rain measurements)
** Current wind speed in m/s (hover to see current wind gust speed)